Regional Weather Roundup
Issued by NWS

Home | Current Version | Previous Version | Text Only | Print | Product List | Glossary Off
Versions: 1 2 3 4 5 6 7 8 9 10 11 12 13 14 15 16 17 18 19 20 21 22 23 24 25 26 27 28 29 30 31 32 33 34 35 36 37 38 39 40 41 42 43 44 45 46 47 48 49 50

000
ASUS43 KMKX 230220
RWRWI

WISCONSIN REGIONAL WEATHER ROUNDUP
NATIONAL WEATHER SERVICE MILWAUKEE/SULLIVAN WI
900 PM CDT SUN APR 22 2018

NOTE: "FAIR" INDICATES FEW OR NO CLOUDS BELOW 12,000 FEET WITH NO
SIGNIFICANT WEATHER AND/OR OBSTRUCTIONS TO VISIBILITY.

WIZ001-002-006>008-014>016-023>028-230300-
NORTHWEST WISCONSIN

CITY           SKY/WX    TMP DP  RH WIND       PRES   REMARKS
SUPERIOR ARPT  FAIR      36  28  74 CALM      30.25R
ASHLAND        FAIR      36  25  64 NW5       30.25S WCI  32
HAYWARD        FAIR      42  27  55 CALM      30.26R
SIREN          FAIR      47  32  56 CALM      30.25S
CUMBERLAND     FAIR      45  30  57 CALM      30.26R
RICE LAKE      FAIR      47  33  57 E5        30.28R
CHETEK         FAIR      51  32  47 SE3       30.26R
LADYSMITH      FAIR      52  23  32 SE5       30.28S
EAU CLAIRE     FAIR      54  29  38 SE9       30.25R
MENOMONIE      FAIR      49  35  59 E3        30.25S
NEW RICHMOND   FAIR      48  34  58 CALM      30.26R
OSCEOLA        FAIR      47  36  63 CALM      30.28R
$$

WIZ003>005-009-010-017-018-230300-
NORTH CENTRAL WISCONSIN

CITY           SKY/WX    TMP DP  RH WIND       PRES   REMARKS
MANITOWISH WTR FAIR      41  25  53 CALM      30.27R
ARBOR VITAE    FAIR      52  25  34 S3        30.27R
WOODRUFF       FAIR      52  25  34 S3        30.27R
RHINELANDER    FAIR      50  21  32 CALM      30.29R
EAGLE RIVER    FAIR      46  19  34 S3        30.28R
LAND O LAKES   FAIR      38  19  46 CALM      30.29R
PHILLIPS       FAIR      40  27  58 CALM      30.27R
TOMAHAWK       FAIR      42  22  44 CALM      30.29R
MEDFORD        FAIR      45  27  50 SE3       30.28R
MERRILL          N/A     48  16  28 CALM      30.30R
$$

WIZ029-030-035-036-043>047-230300-
CENTRAL WISCONSIN

CITY           SKY/WX    TMP DP  RH WIND       PRES   REMARKS
WAUSAU         FAIR      49  16  26 SE3       30.28R
MOSINEE        CLEAR     48  10  21 E3        30.31R
MARSHFIELD     FAIR      49  18  29 E5        30.28R
STEVENS POINT  FAIR      37  20  50 CALM      30.30S
WAUPACA        FAIR      43  29  56 CALM      30.31R
WAUTOMA        FAIR      41  31  67 CALM      30.30R
WISC RAPIDS    FAIR      46  18  32 E5        30.29S
CAMP DOUGLAS   FAIR      44  24  45 E5        30.27R
$$

WIZ011>013-019>022-031-037>040-048>050-230300-
NORTHEAST WISCONSIN

CITY           SKY/WX    TMP DP  RH WIND       PRES   REMARKS
ANTIGO         FAIR      38  23  55 S6        30.30S WCI  33
SHAWANO        FAIR      42  30  62 CALM      30.31S
OCONTO         FAIR      38  24  57 CALM      30.31S
STURGEON BAY   NOT AVBL
GREEN BAY      FAIR      45  30  55 N6        30.31R
MANITOWOC      FAIR      44  24  45 CALM      30.32R
APPLETON       CLEAR     48  25  40 CALM      30.29R
CLINTONVILLE   FAIR      44  27  52 CALM      30.31R
OSHKOSH        FAIR      47  30  51 CALM      30.29S
$$

WIZ032>034-041-042-053>061-230300-
SOUTHWEST WISCONSIN

CITY           SKY/WX    TMP DP  RH WIND       PRES   REMARKS
LA CROSSE      FAIR      58  27  30 E3        30.25R
SPARTA         FAIR      43  28  56 CALM      30.28R
VIROQUA        FAIR      49  26  40 E7        30.26R
BOSCOBEL       FAIR      52  30  43 E3        30.26R
PRAIRIE DU CHI FAIR      56  22  26 CALM      30.24S
PLATTEVILLE    FAIR      51  34  52 E8        30.26R
$$

WIZ056-057-062-063-064-067-068-230300-
SOUTH CENTRAL WISCONSIN

CITY           SKY/WX    TMP DP  RH WIND       PRES   REMARKS
REEDSBURG      FAIR      51  28  41 CALM      30.27S
BARABOO/DELLS  FAIR      49  27  42 CALM      30.27F
LONE ROCK      FAIR      50  34  54 E8        30.27R
MINERAL POINT  FAIR      54  30  40 E6        30.26R
MADISON        FAIR      45  30  55 E7        30.28R
MIDDLETON      FAIR      51  30  45 E5        30.28S
WATERTOWN      FAIR      44  29  57 CALM      30.29R
MONROE         FAIR      50  27  40 NE6       30.26S
JANESVILLE     FAIR      45  30  57 NE6       30.27F
$$

WIZ051-052-058>065-066-070>072-230300-
SOUTHEAST WISCONSIN

CITY           SKY/WX    TMP DP  RH WIND       PRES   REMARKS
MILWAUKEE      FAIR      42  29  59 N3        30.31R
WAUKESHA       CLEAR     46  25  42 NE12      30.30R
MILWAUKEE/TIMM CLEAR     43  21  42 NE5       30.32R
RACINE         FAIR      41  28  60 N6        30.31R
BURLINGTON     FAIR      47  26  45 E7        30.29R
KENOSHA        FAIR      41  27  57 NE7       30.29R
FOND DU LAC    FAIR      43  31  62 CALM      30.29S
SHEBOYGAN      FAIR      39  32  76 CALM      30.31R
WEST BEND      FAIR      41  23  48 CALM      30.30S
JUNEAU         FAIR      49  28  43 CALM      30.30S
$$

LSZ147-162-230300-
LAKE SUPERIOR

STATION/POSITION TIME  TEMP    WIND        PRES    WAVE
                       AIR SEA DIR/SP/G            HT/PER
                 (UTC) (F)     (DEG/KT/KT) (MB)    (FT/S)
DEVILS ISLAND    0200   48     160/ 11/ 12 1024.5R
SAXON HARBOR     0140   35     170/  2/  3 1023.4F
$$

LMZ867-665-643>646-230300-
LAKE MICHIGAN

STATION/POSITION TIME  TEMP    WIND        PRES    WAVE
                       AIR SEA DIR/SP/G            HT/PER
                 (UTC) (F)     (DEG/KT/KT) (MB)    (FT/S)
NORTHPORT PIER   0140   40                 1026.4S
KEWAUNEE LAKESHO 0154   40     300/  1/  2 1025.9R
SHEBOYGAN LAKESH 0200   43      10/  3/  4 1026.9R
PORT WASHINGTON  0130   44      10/  4/  9 1027.4R
MILWAUKEE LAKESH 0200   43      10/  4/  5   N/A
KENOSHA   LAKESH 0200   41                 1025.7
$$

TC  - TEMPERATURE IN CELSIUS
VSB - VISIBILITY IN STATUTE MILES
WCI - WIND CHILL INDEX
HX  - HEAT INDEX




USA.gov is the U.S. government's official web portal to all federal, state and local government web resources and services.